AirNav   TITAN Aviation Fuels
 
 834 users online  

50F Bourland Field Airport
Fort Worth, Texas, USA

GOING TO FORT WORTH?


FAA INFORMATION EFFECTIVE 16 JUNE 2022

Location

FAA Identifier: 50F
Lat/Long: 32-34-54.6000N 097-35-26.8000W
32-34.910000N 097-35.446667W
32.5818333,-97.5907778
(estimated)
Elevation: 873.2 ft. / 266.2 m (surveyed)
Variation: 06E (2000)
From city: 17 miles SW of FORT WORTH, TX
Time zone: UTC -5 (UTC -6 during Standard Time)
Zip code: 76126

Airport Operations

Airport use: Open to the public
Activation date: 09/1981
Control tower: no
ARTCC: FORT WORTH CENTER
FSS: FORT WORTH FLIGHT SERVICE STATION
NOTAMs facility: FTW (NOTAM-D service available)
Attendance: MON-SAT DAYLIGHT HOURS
FOR SVCS AFT HRS CALL 817-752-4701.
Wind indicator: lighted
Segmented circle: yes
Lights: ACTVT VASI RWYS 17 & 35; MIRL RWY 17/35 - CTAF.
Beacon: white-green (lighted land airport)
Operates sunset to sunrise.

Airport Communications

CTAF/UNICOM: 123.0
REGIONAL APPROACH: 135.975
REGIONAL DEPARTURE: 135.975
DODJE STAR: 125.2 125.9
GARLAND DP: 135.975
LIKES STAR: 125.8 ;SOUTH 135.975 ;NORTH
MOTZA STAR: 118.1 ;SOUTH 125.8 ;NORTH
REEKO STAR: 125.2
SANGR STAR: 124.3
SASIE STAR: 124.3
SLUGG STAR: 125.8 ;SOUTH 135.975 ;NORTH
WESAT STAR: 118.1 ;SOUTH 125.8 ;NORTH
WX AWOS-3PT at GDJ (14 nm SW): 118.925 (817-573-7514)
WX AWOS-3PT at FWS (14 nm E): 120.025 (817-426-4172)
WX AWOS-3 at CPT (16 nm SE): 119.525 (817-641-4135)
WX ASOS at FTW (18 nm NE): PHONE 817-740-3346

Airport Services

Fuel available: 100LL JET-A
100LL:FUEL AVBL SELF SERVE AND FULL SVC.
Parking: hangars and tiedowns

Runway Information

Runway 17/35

Dimensions: 4049 x 60 ft. / 1234 x 18 m
Surface: asphalt, in good condition
Runway edge lights: medium intensity
RUNWAY 17  RUNWAY 35
Latitude: 32-35.240523N32-34.580380N
Longitude: 097-35.505517W097-35.388090W
Elevation: 873.1 ft.836.7 ft.
Traffic pattern: leftleft
Runway heading: 165 magnetic, 171 true345 magnetic, 351 true
Displaced threshold: 392 ft.215 ft.
Markings: nonprecision, in good conditionnonprecision, in good condition
Visual slope indicator: 2-box VASI on left (3.00 degrees glide path)2-box VASI on left (3.00 degrees glide path)
Touchdown point: yes, no lightsyes, no lights
Obstructions: 15 ft. road, 201 ft. from runway, 33 ft. right of centerline
15 FT RD 0 FT DSTC 112 FT R.
40 ft. trees, 201 ft. from runway, 60 ft. right of centerline
40 FT TREES 0-120 FT DSTC 60 FT R & L.

Airport Ownership and Management from official FAA records

Ownership: Privately-owned
Owner: MATT RIX
17611 HWY 377 SOUTH
CRESSON, TX 76035
Phone 817-307-0718
Manager: MARY JANE BUTT
101 CONSTELLATION DR
CRESSON, TX 76035
Phone 817-752-4701

Airport Operational Statistics

Aircraft based on the field: 118
Single engine airplanes: 100
Multi engine airplanes: 15
Jet airplanes: 2
Helicopters: 1
    
Aircraft operations: avg 128/day *
75% local general aviation
25% transient general aviation
* for 12-month period ending 30 December 2018

Additional Remarks

FOR CD CTC REGIONAL APCH AT 972-615-2799.
BRUSH & TREES OBSCURE VIEW OF RWY & APCH AT TXY HOLD PSNS.

Instrument Procedures

NOTE: All procedures below are presented as PDF files. If you need a reader for these files, you should download the free Adobe Reader.

NOT FOR NAVIGATION. Please procure official charts for flight.
FAA instrument procedures published for use from 16 June 2022 at 0901Z to 14 July 2022 at 0900z.

 
STARs - Standard Terminal Arrivals
LIKES THREE (RNAV)   download (201KB)
MOTZA ONE   2 pages: [1] [2] (476KB)
REEKO THREE (RNAV)   download (206KB)
SASIE SIX **CHANGED**   2 pages: [1] [2] (497KB)
TRUUK TWO (RNAV)   download (213KB)
WESAT TWO (RNAV)   download (201KB)
 
IAPs - Instrument Approach Procedures
RNAV (GPS) RWY 17   download (177KB)
RNAV (GPS) RWY 35   download (190KB)
 
Departure Procedures
GARLAND THREE   2 pages: [1] [2] (352KB)
KINGDOM THREE   2 pages: [1] [2] (364KB)
KUSSO ONE (RNAV)   2 pages: [1] [2] (317KB)
SWABR ONE (RNAV)   2 pages: [1] [2] (317KB)
NOTE: Special Take-Off Minimums/Departure Procedures apply   download (308KB)

Other nearby airports with instrument procedures:

KWEA - Parker County Airport (11 nm NW)
KNFW - Fort Worth Naval Air Station JRB (Carswell Field) Airport (14 nm NE)
KGDJ - Granbury Regional Airport (14 nm SW)
KFWS - Fort Worth Spinks Airport (14 nm E)
KCPT - Cleburne Regional Airport (16 nm SE)
KFTW - Fort Worth Meacham International Airport (18 nm NE)
 
Loc | Ops | Rwys | IFR | FBO | Links
Com | Nav | Svcs | Stats | Notes

City of Fort Worth
 
Area around 50F (Bourland Field Airport)
 
Road maps at: MapQuest Bing Google
 
Aerial photo
WARNING: Photo may not be current or correct
Aerial photo of 50F (Bourland Field Airport)
Photo by Paul Bristow
Photo taken 01-Jun-2008

Do you have a better or more recent aerial photo of Bourland Field Airport that you would like to share? If so, please send us your photo.

 
Sectional chart

 
Airport distance calculator
Flying to Bourland Field Airport? Find the distance to fly.

From to 50F

Sunrise and sunset
Times for 27-Jun-2022
 Local
(UTC-5)
 Zulu
(UTC)
Morning civil twilight05:5710:57
Sunrise06:2611:26
Sunset20:4101:41
Evening civil twilight21:0902:09

Current date and time
Zulu (UTC)  28-Jun-2022 03:54:07
Local (UTC-5)  27-Jun-2022 22:54:07
 
METAR
KNFW 
13nm NE 
280252Z 06008KT 10SM FEW050 SCT250 30/20 A3012 RMK SLP181 T03060200 53013
KGDJ 
14nm SW 
AWOS-3 118.925 817-573-7514
280335Z AUTO 07009KT 10SM CLR 30/19 A3014 RMK AO2 T02950192
KFWS 
15nm E 
280335Z AUTO 07005KT 10SM CLR 28/19 A3016 RMK AO2 T02840194
KCPT 
16nm SE 
280335Z AUTO 07010KT 10SM CLR 29/19 A3015 RMK A01
KFTW 
19nm NE 
280253Z 05009KT 10SM CLR 29/19 A3011 RMK AO2 SLP187 T02890194 53013
KGKY 
25nm E 
280253Z AUTO 05010G16KT 10SM CLR 30/19 A3011 RMK AO2 SLP188 T03000194 53013
TAF
KNFW 
13nm NE 
2723/2823 06008KT 9999 SCT060 QNH2999INS FM281200 05006KT 9999 BKN050 BKN250 QNH3008INS FM281800 05012KT 9999 FEW070 FEW250 QNH3004INS AUTOMATED SENSOR METWATCH 2804 TIL 2811 T24/2812Z T36/2822Z FN20048
KFTW 
19nm NE 
272110Z 2721/2818 05012KT P6SM SCT060 FM280800 07008KT P6SM BKN060 FM281500 03011KT P6SM SCT120
NOTAMs
Click for the latest NOTAMs
NOTAMs are issued by the DoD/FAA and will open in a separate window not controlled by AirNav.

 

 
 

FBO, Fuel Providers, and Aircraft Ground Support

  
 Business Name 
 
 Contact 
 
 Services / Description 
 
Fuel Prices
 
Comments
  
Bourland Field 817-396-4554
no information available

If you are affiliated with Bourland Field and would like to show here your services, contact info, web link, logo, and more, click here
100LL Jet A
SS $6.97 $5.93 
 Updated 17-Jun-2022
 
   1 read write
SS=Self service
Update Fuel Prices
 

Would you like to see your business listed on this page?

 If your business provides an interesting product or service to pilots, flight crews, aircraft, or users of the Bourland Field Airport, you should consider listing it here.  To start the listing process, click on the button below
 
Add a business
 

Other Pages about Bourland Field Airport

www.bourlandestates.com/bourlandfield.htm
 
Update a link
 
Copyright © AirNav, LLC. All rights reserved. Privacy Policy  Contact